Terminal Aerodrome Forecast
Issued by NWS Wichita, KS

Home | Current Version | Previous Version | Graphics & Text | Print | Product List | Glossary On
Versions: 1 2 3 4 5 6 7 8 9 10 11 12 13 14 15 16 17 18 19 20 21 22 23 24
801
FTUS43 KICT 261723
TAFICT
TAF
KICT 261723Z 2618/2718 18015G25KT P6SM VCTS BKN040CB
      TEMPO 2618/2620 5SM TSRA
     FM270500 16015G23KT P6SM SCT015 BKN050
     FM270600 14007KT P6SM OVC015
      TEMPO 2710/2714 OVC008=

USA.gov is the U.S. government's official web portal to all federal, state and local government web resources and services.